Regional Weather Roundup
Issued by NWS

Home | Current Version | Previous Version | Graphics & Text | Print | Product List | Glossary On
Versions: 1 2 3 4 5 6 7 8 9 10 11 12 13 14 15 16 17 18 19 20 21 22 23 24 25 26 27 28 29 30 31 32 33 34 35 36 37 38 39 40 41 42 43 44 45 46 47 48 49 50
000
ASUS43 KOAX 200302
RWRNE

WEATHER ROUNDUP FOR NEBRASKA
NATIONAL WEATHER SERVICE OMAHA NE
1000 PM CDT THU OCT 19 2017

NOTES: SATELLITE DATA IS BEING USED TO AUGMENT CLOUD COVER ABOVE
       12000 FEET.
       "FAIR" INDICATES FEW OR NO CLOUDS BELOW 12,000 FEET WITH NO
       SIGNIFICANT WEATHER AND/OR OBSTRUCTIONS TO VISIBILITY.


NEZ001>004-019>022-054>056-200400-
NEBRASKA PANHANDLE

CITY           SKY/WX    TMP DP  RH WIND       PRES   REMARKS
SCOTTSBLUFF    CLOUDY    55  32  41 E9        29.83S
ALLIANCE       CLOUDY    57  40  52 S15       29.83F
CHADRON        CLOUDY    64  30  27 S8        29.76S
GORDON         FAIR      65  43  43 S14       29.81S
KIMBALL        CLOUDY    53  35  50 S7        29.90S
SIDNEY         CLOUDY    58  37  45 S12       29.88F
$$

NEZ057>060-069>072-079>082-200400-
SOUTHWEST NEBRASKA

CITY           SKY/WX    TMP DP  RH WIND       PRES   REMARKS
NORTH PLATTE   PTCLDY    63  45  51 SE8       29.88S
IMPERIAL       CLOUDY    63  44  50 S12       29.89S
LEXINGTON      PTCLDY    64  45  50 S10       29.91S
MCCOOK         CLOUDY    67  43  41 S12G22    29.91R
OGALLALA       CLOUDY    62  45  54 CALM      29.88R
$$

NEZ005>010-023>029-035>040-094-200400-
NORTH CENTRAL NEBRASKA

CITY           SKY/WX    TMP DP  RH WIND       PRES   REMARKS
VALENTINE      CLEAR     70  47  43 S18G26    29.81F
AINSWORTH      CLEAR     64  49  59 S14       29.85S
BROKEN BOW     CLOUDY    63  47  55 SE10      29.90S
O`NEILL        CLEAR     63  50  64 S7        29.88S
ORD            CLEAR     63  48  58 S7        29.89S
$$

NEZ041-046>049-061>064-073>077-083>087-200400-
SOUTH CENTRAL NEBRASKA

CITY           SKY/WX    TMP DP  RH WIND       PRES   REMARKS
GRAND ISLAND   CLEAR     63  48  58 S15       29.94S
AURORA         CLEAR     65  46  50 S12G20    29.95S
HASTINGS       CLEAR     63  44  50 S10       29.95S
HEBRON         CLEAR     66  47  50 S10       29.97S
HOLDREGE       CLOUDY    64  44  49 S13       29.93S
KEARNEY        CLOUDY    65  42  43 S16       29.93S
YORK           CLEAR     64  48  55 S12       29.95S
$$

NEZ011>018-030>034-042>045-200400-
NORTHEAST NEBRASKA

CITY           SKY/WX    TMP DP  RH WIND       PRES   REMARKS
NORFOLK        CLEAR     64  51  62 SE9       29.91S
ALBION         CLEAR     60  50  69 SE6       29.92S
BLAIR          CLEAR     67  52  57 S10       29.96S
COLUMBUS       CLEAR     67  49  52 S14       29.93F
FREMONT        CLEAR     65  51  60 SE8       29.96S
TEKAMAH        CLEAR     51  49  92 CALM      29.94S
WAYNE          CLEAR     61  53  75 S8        29.91F
$$

NEZ050>053-065>068-078-088>093-200400-
SOUTHEAST NEBRASKA

CITY           SKY/WX    TMP DP  RH WIND       PRES   REMARKS
LINCOLN        CLEAR     57  49  74 S10       29.97S
OMAHA EPPLEY   PTCLDY    66  51  58 S12       29.97S
BEATRICE       PTCLDY    66  49  54 S12       29.99S
FALLS CITY     CLOUDY    65  51  60 S8        30.02R
NEBRASKA CITY  CLEAR     64  52  65 S10       30.00R
PLATTSMOUTH    CLEAR     66  52  60 S9        29.99R
$$

NEZ044-045-051>053-067-200400-
OMAHA AREA

CITY           SKY/WX    TMP DP  RH WIND       PRES   REMARKS
OMAHA EPPLEY   PTCLDY    66  51  58 S12       29.97S
BLAIR          CLEAR     67  52  57 S10       29.96S
FREMONT        CLEAR     65  51  60 SE8       29.96S
MILLARD        CLEAR     67  53  60 SE3       29.97S
OFFUTT AFB     CLEAR     65  51  58 SE8       29.97S
PLATTSMOUTH    CLEAR     66  52  60 S9        29.99R
WAHOO          FAIR      59  51  74 S7        29.96S
$$




USA.gov is the U.S. government's official web portal to all federal, state and local government web resources and services.